Back to catalog

YUNYAO-1 22

AliveWeatherSSO
NORAD 61242·PAYLOAD·🇨🇳 China
This satellite name has not been confirmed by official sources yet.

Launched Sep 24, 2024 from Jiuquan Satellite Launch Center

Loading…

Next Passes (next 24 hours)

TLE

FreshSource: Space-Track

Epoch: Sep 14, 2026, 23:38 UTC

1 61242U 24174E   26257.98477632  .00005285  00000-0  19312-3 0  9990
2 61242  97.4471 268.8980 0010919 277.7198  82.2801 15.28481680109555

Track YUNYAO-1 22 in real time with AllMySat

Download on the App Store